This is the latest recevied weather packets stored in our database for station/object K8GLX. If no packets are shown the sender has not sent any weather packets the latest 10 day(s).
| Time | Temp. | Humidity | Pressure | Rain* | Wind** | Luminosity | Snow |
|---|---|---|---|---|---|---|---|
| 1777502538 | 8.33° C | 98% | 1010.3 hPa | 0 mm | - | 21 W/m² | - |
| 1777502232 | 8.33° C | 98% | 1010.5 hPa | 0 mm | - | 33 W/m² | - |
| 1777501938 | 8.33° C | 97% | 1010.3 hPa | 0 mm | - | 21 W/m² | - |
| 1777501633 | 8.33° C | 97% | 1010.3 hPa | 0 mm | - | 23 W/m² | - |
| 1777501465 | 8.33° C | 97% | 1010.3 hPa | 0 mm | - | 25 W/m² | - |
| 1777501032 | 8.33° C | 97% | 1010.4 hPa | 0 mm | - | 27 W/m² | - |
| 1777500738 | 8.89° C | 97% | 1010.1 hPa | 0 mm | - | 18 W/m² | - |
| 1777500433 | 8.89° C | 97% | 1009.8 hPa | 0 mm | - | 28 W/m² | - |
| 1777500138 | 8.89° C | 97% | 1009.7 hPa | 0 mm | - | 23 W/m² | - |
| 1777499832 | 8.89° C | 97% | 1009.8 hPa | 0 mm | - | 20 W/m² | - |
| 1777499538 | 8.89° C | 97% | 1009.6 hPa | 0 mm | - | 26 W/m² | - |
| 1777499232 | 8.89° C | 97% | 1009.6 hPa | 0 mm | - | 29 W/m² | - |
| 1777498939 | 8.89° C | 97% | 1009.5 hPa | 0 mm | - | 29 W/m² | - |
| 1777498633 | 8.89° C | 97% | 1009.5 hPa | 0 mm | - | 41 W/m² | - |
| 1777498346 | 8.89° C | 97% | 1009.5 hPa | 0 mm | - | 39 W/m² | - |
| 1777498033 | 8.89° C | 97% | 1009.5 hPa | 0 mm | - | 29 W/m² | - |
| 1777497738 | 8.89° C | 97% | 1009.2 hPa | 0 mm | - | 44 W/m² | - |
| 1777497432 | 8.89° C | 97% | 1009.2 hPa | 0 mm | - | 36 W/m² | - |
| 1777497138 | 8.89° C | 97% | 1009.3 hPa | 0 mm | - | 45 W/m² | - |
| 1777496833 | 8.89° C | 97% | 1009.2 hPa | 0 mm | - | 51 W/m² | - |
| 1777496539 | 8.89° C | 97% | 1009.3 hPa | 0 mm | - | 56 W/m² | - |
| 1777496233 | 8.89° C | 97% | 1008.9 hPa | 0 mm | - | 59 W/m² | - |
| 1777495938 | 8.89° C | 97% | 1008.9 hPa | 0 mm | - | 54 W/m² | - |
| 1777495632 | 8.89° C | 97% | 1009 hPa | 0 mm | - | 53 W/m² | - |
| 1777495339 | 8.89° C | 97% | 1008.9 hPa | 0 mm | - | 54 W/m² | - |
* Rain latest hour (hover to see other rain measurements)
** Current wind speed in m/s (hover to see current wind gust speed)